{"data":{"norad_id":63965,"intl_designator":"2025-099P","name":"STARLINK-34147","alt_names":[],"object_type":"PAYLOAD","status":"ACTIVE","operator":null,"country":"US","launch_date":"2025-05-13","launch_site_code":"AFETR","launch_vehicle":null,"mission":null,"orbit_class":"UNKNOWN","rcs_meters":null,"size_class":null,"mass_kg":null,"dimensions":null,"purposes":["comms"],"wikipedia_slug":null,"has_3d_model":false,"image_url":null,"decayed_at":null,"tle_current":{"epoch":"2026-09-19T23:40:44.474304Z","epoch_age_seconds":191447,"freshness":"STALE","line1":"1 63965U 25099P   26262.98662586  .00015179  00000+0  55964-3 0  9996","line2":"2 63965  42.9996 158.7445 0001503 267.4603  92.6077 15.27598869 77051","mean_motion":15.27598869,"eccentricity":0.0001503,"inclination_deg":42.9996,"raan_deg":158.7445,"arg_perigee_deg":267.4603,"mean_anomaly_deg":92.6077,"bstar":0.00055964,"rev_number":7705,"period_min":94.265584324677,"perigee_km":481.96136826886,"apogee_km":484.02382382544,"semimajor_km":6861.1295960471,"source":"CELESTRAK","updated_at":"2026-09-21T09:00:35.176430Z"}}}